Weather in Timonino

Russia / Arkhangel'skaya Oblast'     61°31′02″N   41°57′58″E
temp.,
°C
wind,
m/s
gust,
m/s
humid.,
%
clouds,
%
prec.,
mm/h
press.,
hPa
HPBL,
m
4 march, thu
thu400:00−6wsw1297100 0.1 99224
03:00−6nne2397100 0.7 991110
06:00−8nne41194100 0.5 990446
09:00−9n3893100 0.6 992412
12:00−7nnw3688100 0.1 994660
15:00−6nw3588100 0.3 995621
18:00−10wnw239598 0.1 99663
21:00−12w229678 0.1 99737
5 march, fri
fri500:00−12ne3695100 0.6 997350
03:00−15nnw269699 0.7 999219
06:00−19nw269567 0.0 1001132
09:00−17nw369361 0.0 1002296
12:00−14nw358897 0.1 1004567
15:00−13nw358598 0.1 1006768
18:00−14nw2694100 0.1 1007256
21:00−17nw239688 0.1 100975
6 march, sat
sat600:00−19wnw259752 0.0 1011104
03:00−21wnw369526 0.0 1012129
06:00−21wnw259621 0.0 101293
09:00−17wnw369350 0.0 1012239
12:00−12w258776 0.0 1011386
15:00−9wsw368483 0.0 1009725
18:00−13sw279390 0.0 1007143
21:00−15ssw399445 0.0 1005247
7 march, sun
sun700:00−15s4109372 0.0 1001303
03:00−13sse4129186 0.0 997507
06:00−11sse51293100 0.8 992746
09:00−11sse61293100 1.6 990722
12:00−9se51093100 1.0 990702
15:00−8ese4894100 1.9 990630
18:00−9e3895100 0.9 990499
21:00−10ene4895100 1.7 991426
8 march, mon
mon800:00−11ne4995100 0.6 992466
03:00−12ne41094100 1.1 994525
06:00−13ne51193100 0.4 996619
09:00−14nne51092100 0.7 999611
12:00−13nne51089100 0.2 1003720
15:00−12nne51089100 0.3 1006771
18:00−14nne51190100 0.1 1009676
21:00−16nne41093100 0.2 1013573